Wright-Patt AFB, OH

12:41 PM EDT on September 26, 2017 (GMT -0400)
Wright-Patterson Air Force Base

Weather History for KFFO - January, 2013

Change the Weather History Date:

Monday, January 14, 2013

  Actual Average Record
Temperature  
Mean Temperature 29 °F -  
Max Temperature 35 °F 32 °F 50 °F (2002)
Min Temperature 23 °F 17 °F 0 °F (1997)
Degree Days  
Heating Degree Days 36    
Moisture  
Dew Point 18 °F    
Average Humidity 73    
Maximum Humidity 81    
Minimum Humidity 64    
Precipitation  
Precipitation 0.00 in - - ()
Sea Level Pressure  
Sea Level Pressure 30.36 in    
Wind  
Wind Speed 10 mph (NNW)    
Max Wind Speed 14 mph    
Max Gust Speed -    
Visibility 10 miles    
Events      
Averages and records for this station are not official NWS values.
T = Trace of Precipitation, MM = Missing Value Source: NWS Daily Summary

Daily Weather History Graph

Daily Weather History Graph

Search for Another Location

Airport or City:

Trip Planner

Search our weather history database for the weather conditions in past years. The results will help you decide how hot, cold, wet, or windy it might be!

Date:

Astronomy

Jan. 14, 2013 Rise Set
Actual Time 7:55 AM EST 5:35 PM EST
Civil Twilight 7:26 AM EST 6:04 PM EST
Nautical Twilight 6:52 AM EST 6:38 PM EST
Astronomical Twilight 6:20 AM EST 7:10 PM EST
Moon 9:29 AM EST (1/14) 9:19 PM EST (1/14)
Length of Visible Light 10h 38m
Length of Day
9h 39m
Waxing Crescent, 11% of the Moon is Illuminated
Jan 14
Waxing Crescent
Jan 18
First Quarter
Jan 26
Full
Feb 3
Last Quarter
Feb 10
New

Hourly Weather History & Observations

Time (EST) Temp. Windchill Dew Point Humidity Pressure Visibility Wind Dir Wind Speed Gust Speed Precip Events Conditions
12:06 AM 35.6 °F 26.6 °F 30.2 °F 81% 30.13 in 10.0 mi West 13.8 mph - N/A   Overcast
12:24 AM 33.8 °F 24.3 °F 28.4 °F 81% 30.14 in 10.0 mi West 13.8 mph - N/A   Overcast
12:55 AM 32.9 °F 23.7 °F 27.0 °F 79% 30.15 in 10.0 mi West 12.7 mph - N/A   Overcast
1:55 AM 30.7 °F 23.3 °F 23.2 °F 74% 30.20 in 10.0 mi WNW 8.1 mph - N/A   Mostly Cloudy
2:55 AM 28.6 °F 18.2 °F 20.7 °F 72% 30.24 in 10.0 mi West 12.7 mph - N/A   Overcast
3:55 AM 25.9 °F 14.8 °F 18.7 °F 74% 30.27 in 10.0 mi West 12.7 mph - N/A   Mostly Cloudy
4:55 AM 25.3 °F 14.1 °F 17.8 °F 73% 30.28 in 10.0 mi West 12.7 mph - N/A   Overcast
5:55 AM 24.3 °F 13.3 °F 17.6 °F 76% 30.30 in 10.0 mi West 11.5 mph - N/A   Overcast
6:55 AM 24.4 °F 14.9 °F 17.6 °F 75% 30.33 in 10.0 mi NW 9.2 mph - N/A   Overcast
7:55 AM 23.7 °F 15.6 °F 16.9 °F 75% 30.38 in 10.0 mi NNW 6.9 mph - N/A   Overcast
8:55 AM 23.5 °F 15.4 °F 16.3 °F 74% 30.42 in 10.0 mi West 6.9 mph - N/A   Mostly Cloudy
9:55 AM 23.9 °F 18.0 °F 15.8 °F 71% 30.43 in 10.0 mi WNW 4.6 mph - N/A   Overcast
10:55 AM 24.4 °F 14.9 °F 16.5 °F 72% 30.43 in 10.0 mi NW 9.2 mph - N/A   Overcast
11:55 AM 24.8 °F 16.1 °F 16.5 °F 71% 30.38 in 10.0 mi NE 8.1 mph - N/A   Overcast
12:55 PM 26.2 °F 20.7 °F 17.6 °F 70% 30.38 in 10.0 mi NW 4.6 mph - N/A   Overcast
1:55 PM 26.2 °F 17.1 °F 17.1 °F 68% 30.38 in 10.0 mi NW 9.2 mph - N/A   Overcast
2:55 PM 26.2 °F 16.4 °F 17.1 °F 68% 30.38 in 10.0 mi NNW 10.4 mph - N/A   Overcast
3:55 PM 25.9 °F 15.3 °F 16.5 °F 68% 30.42 in 10.0 mi NNW 11.5 mph - N/A   Overcast
4:08 PM 26.6 °F 16.8 °F 15.8 °F 64% 30.43 in 10.0 mi NW 10.4 mph - N/A   Overcast
4:40 PM 24.8 °F 14.6 °F 15.8 °F 69% 30.46 in 10.0 mi NW 10.4 mph - N/A   Overcast
4:55 PM 25.5 °F 16.9 °F 16.7 °F 69% 30.48 in 10.0 mi NNW 8.1 mph - N/A   Overcast
5:55 PM 25.2 °F 15.7 °F 16.3 °F 69% 30.41 in 10.0 mi NNE 9.2 mph - N/A   Overcast
6:25 PM 24.8 °F 19.1 °F 17.6 °F 74% 30.44 in 10.0 mi Variable 4.6 mph - N/A   Mostly Cloudy
6:55 PM 25.3 °F 16.7 °F 17.1 °F 71% 30.43 in 10.0 mi North 8.1 mph - N/A   Overcast
7:36 PM 24.8 °F 19.1 °F 17.6 °F 74% 30.43 in 10.0 mi North 4.6 mph - N/A   Overcast
7:55 PM 25.2 °F 18.3 °F 16.7 °F 70% 30.43 in 10.0 mi NE 5.8 mph - N/A   Overcast
8:00 PM 24.8 °F 19.1 °F 17.6 °F 74% 30.37 in 10.0 mi North 4.6 mph - N/A   Overcast
8:18 PM 24.8 °F 17.9 °F 17.6 °F 74% 30.36 in 10.0 mi North 5.8 mph - N/A   Overcast
8:55 PM 24.8 °F 16.9 °F 16.7 °F 71% 30.41 in 10.0 mi NNE 6.9 mph - N/A   Scattered Clouds
9:27 PM 23.0 °F 15.8 °F 15.8 °F 74% 30.41 in 10.0 mi NE 5.8 mph - N/A   Mostly Cloudy
9:43 PM 23.0 °F 15.8 °F 17.6 °F 80% 30.40 in 10.0 mi NE 5.8 mph - N/A   Mostly Cloudy
9:45 PM 23.0 °F 15.8 °F 17.6 °F 80% 30.40 in 10.0 mi NE 5.8 mph - N/A   Mostly Cloudy
9:55 PM 24.1 °F 17.0 °F 17.1 °F 75% 30.39 in 10.0 mi NNE 5.8 mph - N/A   Mostly Cloudy
10:55 PM 25.2 °F 18.3 °F 17.2 °F 72% 30.39 in 10.0 mi NNW 5.8 mph - N/A   Overcast
11:36 PM 24.8 °F 19.1 °F 17.6 °F 74% 30.39 in 10.0 mi North 4.6 mph - N/A   Scattered Clouds
11:55 PM 24.8 °F 16.9 °F 17.1 °F 72% 30.39 in 10.0 mi North 6.9 mph - N/A   Partly Cloudy